, WY

(GMT )
South Pass

Weather History for KFWZ - March, 2014

Change the Weather History Date:

Tuesday, March 4, 2014

  Actual Average Record
Temperature  
Mean Temperature 30 °F -  
Max Temperature 33 °F - - ()
Min Temperature 28 °F - - ()
Degree Days  
Heating Degree Days 34    
Moisture  
Dew Point 25 °F    
Average Humidity 81    
Maximum Humidity 100    
Minimum Humidity 51    
Precipitation  
Precipitation 0.07 in - - ()
Sea Level Pressure  
Sea Level Pressure 29.87 in    
Wind  
Wind Speed 16 mph (WSW)    
Max Wind Speed 31 mph    
Max Gust Speed 43 mph    
Visibility 8 miles    
Events Snow    
Averages and records for this station are not official NWS values.
T = Trace of Precipitation, MM = Missing Value Source: NWS Daily Summary

Daily Weather History Graph

Daily Weather History Graph

Search for Another Location

Airport or City:

Trip Planner

Search our weather history database for the weather conditions in past years. The results will help you decide how hot, cold, wet, or windy it might be!

Date:

Astronomy

Mar. 04, 2014 Rise Set
Actual Time 6:45 AM MST 6:08 PM MST
Civil Twilight 6:17 AM MST 6:36 PM MST
Nautical Twilight 5:44 AM MST 7:09 PM MST
Astronomical Twilight 5:12 AM MST 7:42 PM MST
Moon 8:28 AM MST (3/4) 10:25 PM MST (3/4)
Length of Visible Light 12h 19m
Length of Day
11h 23m
Waxing Crescent, 15% of the Moon is Illuminated
Mar 4
Waxing Crescent
Mar 8
First Quarter
Mar 16
Full
Mar 23
Last Quarter
Mar 30
New

Hourly Weather History & Observations

Time (MST) Temp. Windchill Dew Point Humidity Pressure Visibility Wind Dir Wind Speed Gust Speed Precip Events Conditions
12:15 AM 30.2 °F 15.4 °F 28.4 °F 93% 29.82 in 3.0 mi WSW 28.8 mph 42.6 mph N/A Snow Light Snow
12:35 AM 30.2 °F 15.7 °F 28.4 °F 93% 29.83 in 2.0 mi WSW 27.6 mph 42.6 mph N/A Snow Light Snow
12:55 AM 30.2 °F 14.9 °F 28.4 °F 93% - 2.5 mi WSW 31.1 mph 40.3 mph N/A Snow Light Snow
1:15 AM 30.2 °F 15.4 °F 28.4 °F 93% - 2.5 mi WSW 28.8 mph 36.8 mph N/A Snow Light Snow
1:35 AM 30.2 °F 15.2 °F 28.4 °F 93% - 2.5 mi WSW 29.9 mph 40.3 mph N/A Snow Light Snow
1:55 AM 30.2 °F 16.5 °F 28.4 °F 93% - 3.0 mi WSW 24.2 mph 38.0 mph N/A Snow Light Snow
2:15 AM 30.2 °F 15.9 °F 28.4 °F 93% - 4.0 mi WSW 26.5 mph 33.4 mph N/A   Overcast
2:35 AM 30.2 °F 16.5 °F 28.4 °F 93% - 5.0 mi WSW 24.2 mph 33.4 mph N/A   Overcast
2:55 AM 30.2 °F 15.9 °F 28.4 °F 93% - 4.0 mi WSW 26.5 mph 35.7 mph N/A   Mostly Cloudy
3:15 AM 30.2 °F 15.9 °F 28.4 °F 93% - 4.0 mi WSW 26.5 mph 34.5 mph N/A   Scattered Clouds
3:35 AM 30.2 °F 16.8 °F 28.4 °F 93% 29.81 in 7.0 mi WSW 23.0 mph 33.4 mph N/A   Mostly Cloudy
3:55 AM 30.2 °F 17.4 °F 28.4 °F 93% - 7.0 mi WSW 20.7 mph 28.8 mph N/A Snow Light Snow
4:15 AM 30.2 °F 17.4 °F 28.4 °F 93% 29.81 in 7.0 mi WSW 20.7 mph 27.6 mph N/A   Overcast
4:35 AM 30.2 °F 17.8 °F 28.4 °F 93% - 10.0 mi WSW 19.6 mph 26.5 mph N/A   Overcast
4:55 AM 30.2 °F 18.5 °F 28.4 °F 93% - 5.0 mi WSW 17.3 mph 24.2 mph N/A   Overcast
5:15 AM 30.2 °F 18.9 °F 28.4 °F 93% - 3.0 mi WSW 16.1 mph - N/A Snow Light Snow
5:35 AM 30.2 °F 19.3 °F 28.4 °F 93% 29.82 in 4.0 mi WSW 15.0 mph - N/A Snow Light Snow
5:55 AM 30.2 °F 19.3 °F 28.4 °F 93% 29.81 in 1.5 mi WSW 15.0 mph - N/A Snow Light Snow
6:15 AM 30.2 °F 18.9 °F 30.2 °F 100% 29.81 in 1.2 mi WSW 16.1 mph - N/A Snow Light Snow
6:35 AM 30.2 °F 18.9 °F 30.2 °F 100% 29.81 in 1.2 mi WSW 16.1 mph - N/A Snow Light Snow
6:55 AM 30.2 °F 18.5 °F 30.2 °F 100% - 1.2 mi WSW 17.3 mph - N/A Snow Light Snow
7:15 AM 30.2 °F 18.5 °F 30.2 °F 100% - 0.5 mi WSW 17.3 mph - N/A Snow Snow
7:35 AM 30.2 °F 19.3 °F 30.2 °F 100% 29.81 in 0.8 mi WSW 15.0 mph - N/A Snow Light Snow
7:55 AM 30.2 °F 18.9 °F 28.4 °F 93% 29.81 in 5.0 mi WSW 16.1 mph 23.0 mph N/A   Mostly Cloudy
8:15 AM 30.2 °F 21.9 °F 28.4 °F 93% 29.81 in 10.0 mi West 9.2 mph 17.3 mph N/A   Scattered Clouds
8:35 AM 30.2 °F 23.4 °F 28.4 °F 93% 29.81 in 10.0 mi WSW 6.9 mph - N/A   Mostly Cloudy
8:55 AM 32.0 °F 23.6 °F 28.4 °F 87% 29.81 in 10.0 mi WSW 10.4 mph - N/A   Mostly Cloudy
9:15 AM 32.0 °F - 28.4 °F 87% 29.83 in 10.0 mi Calm Calm - N/A   Mostly Cloudy
9:35 AM 32.0 °F 23.6 °F 26.6 °F 80% 29.83 in 10.0 mi NE 10.4 mph - N/A   Overcast
9:55 AM 32.0 °F 26.4 °F 26.6 °F 80% 29.85 in 10.0 mi ENE 5.8 mph - N/A   Overcast
10:15 AM 32.0 °F 27.5 °F 26.6 °F 80% 29.85 in 10.0 mi NNE 4.6 mph - N/A   Overcast
10:35 AM 32.0 °F - 26.6 °F 80% 29.84 in 10.0 mi Calm Calm - N/A   Overcast
10:55 AM 32.0 °F - 26.6 °F 80% 29.84 in 10.0 mi Calm Calm - N/A   Overcast
11:15 AM 32.0 °F 27.5 °F 28.4 °F 87% 29.85 in 10.0 mi South 4.6 mph - N/A   Overcast
11:35 AM 32.0 °F 28.7 °F 28.4 °F 87% 29.85 in 10.0 mi SSW 3.5 mph - N/A   Overcast
11:55 AM 32.0 °F 26.4 °F 28.4 °F 87% 29.85 in 10.0 mi South 5.8 mph - N/A   Overcast
12:15 PM 32.0 °F 25.6 °F 30.2 °F 93% 29.84 in 10.0 mi South 6.9 mph - 0.02 in   Overcast
12:35 PM 32.0 °F 27.5 °F 28.4 °F 87% 29.84 in 10.0 mi SSW 4.6 mph - 0.04 in   Overcast
12:55 PM 32.0 °F 24.8 °F 28.4 °F 87% 29.83 in 10.0 mi South 8.1 mph - 0.06 in   Overcast
1:15 PM 32.0 °F 26.4 °F 30.2 °F 93% 29.83 in 10.0 mi South 5.8 mph - 0.01 in   Overcast
1:35 PM 32.0 °F - 30.2 °F 93% 29.84 in 10.0 mi Calm Calm - 0.01 in   Overcast
1:55 PM 33.8 °F 29.6 °F 30.2 °F 87% 29.83 in 10.0 mi SE 4.6 mph - 0.01 in   Overcast
2:15 PM 32.0 °F - 30.2 °F 93% 29.84 in 10.0 mi Calm Calm - N/A   Overcast
2:35 PM 32.0 °F 28.7 °F 30.2 °F 93% 29.84 in 10.0 mi East 3.5 mph - N/A   Overcast
2:55 PM 32.0 °F - 28.4 °F 87% 29.86 in 10.0 mi Calm Calm - N/A   Overcast
3:15 PM 32.0 °F 23.0 °F 28.4 °F 87% 29.84 in 5.0 mi SSE 11.5 mph - N/A Snow Light Snow
3:35 PM 32.0 °F - 23.0 °F 69% 29.86 in 10.0 mi Calm Calm - N/A   Overcast
3:55 PM 32.0 °F 28.7 °F 26.6 °F 80% 29.86 in 10.0 mi East 3.5 mph - N/A   Overcast
4:15 PM 32.0 °F - 24.8 °F 75% 29.86 in 10.0 mi Calm Calm - N/A   Mostly Cloudy
4:35 PM 32.0 °F 28.7 °F 26.6 °F 80% 29.86 in 10.0 mi ENE 3.5 mph - N/A   Mostly Cloudy
4:55 PM 32.0 °F - 26.6 °F 80% 29.87 in 10.0 mi Calm Calm - N/A   Scattered Clouds
5:15 PM 32.0 °F - 24.8 °F 75% 29.87 in 10.0 mi Calm Calm - N/A   Scattered Clouds
5:35 PM 32.0 °F - 26.6 °F 80% 29.88 in 10.0 mi Calm Calm - N/A   Clear
5:55 PM 32.0 °F - 24.8 °F 75% 29.89 in 10.0 mi Calm Calm - N/A   Clear
6:15 PM 32.0 °F - 24.8 °F 75% 29.90 in 10.0 mi Calm Calm - N/A   Clear
6:35 PM 30.2 °F 23.4 °F 23.0 °F 75% 29.90 in 10.0 mi NNW 6.9 mph - N/A   Clear
6:55 PM 30.2 °F - 15.8 °F 55% 29.90 in 10.0 mi Calm Calm - N/A   Clear
7:15 PM 30.2 °F 26.7 °F 15.8 °F 55% 29.92 in 10.0 mi North 3.5 mph - N/A   Clear
7:35 PM 30.2 °F 26.7 °F 17.6 °F 60% 29.92 in 10.0 mi NNE 3.5 mph - N/A   Clear
7:55 PM 30.2 °F 25.4 °F 19.4 °F 64% 29.93 in 10.0 mi NNW 4.6 mph - N/A   Clear
8:15 PM 30.2 °F - 14.0 °F 51% 29.93 in 10.0 mi Calm Calm - N/A   Clear
8:35 PM 30.2 °F - 14.0 °F 51% 29.94 in 10.0 mi Calm Calm - N/A   Mostly Cloudy
8:55 PM 30.2 °F - 14.0 °F 51% 29.94 in 10.0 mi Calm Calm - N/A   Overcast
9:15 PM 30.2 °F - 14.0 °F 51% 29.96 in 10.0 mi Calm Calm - N/A   Overcast
9:35 PM 30.2 °F - 14.0 °F 51% 29.96 in 10.0 mi Calm Calm - N/A   Overcast
9:55 PM 30.2 °F - 14.0 °F 51% 29.96 in 10.0 mi Calm Calm - N/A   Overcast
10:15 PM 30.2 °F 21.3 °F 14.0 °F 51% 29.96 in 10.0 mi NW 10.4 mph - N/A   Overcast
10:35 PM 30.2 °F 24.3 °F 15.8 °F 55% 29.98 in 10.0 mi NW 5.8 mph - N/A   Overcast
10:55 PM 30.2 °F 23.4 °F 17.6 °F 60% 29.98 in 10.0 mi WNW 6.9 mph - N/A   Overcast
11:15 PM 28.4 °F 22.2 °F 17.6 °F 64% 29.98 in 10.0 mi West 5.8 mph - N/A   Overcast
11:35 PM 28.4 °F 21.2 °F 19.4 °F 69% 29.98 in 10.0 mi West 6.9 mph - N/A   Mostly Cloudy
11:55 PM 28.4 °F 20.4 °F 19.4 °F 69% - 10.0 mi West 8.1 mph - N/A   Scattered Clouds